CW6723 Weather Reports


Display with metric or nautical units.
time (UTC)temp
F
wind
direction
speed
MPH
gust
MPH
rain 1hr
in
rain 24hr
in
rain mn
in
humidity
%
barometer
mb
20260506221524 71 309 5.0 11.0 0.00 0.00 0.00 63 1017.0
20260506220033 73 324 3.0 9.0 0.00 0.00 0.00 61 1017.1
20260506214522 72 270 2.0 7.0 0.00 0.00 0.00 63 1017.3
20260506213022 71 288 3.0 8.0 0.00 0.00 0.00 65 1017.3
20260506211524 71 109 2.0 6.0 0.00 0.00 0.00 65 1017.4
20260506210024 70 300 2.0 7.0 0.00 0.00 0.00 66 1017.5
20260506204518 71 263 2.0 6.0 0.00 0.00 0.00 64 1017.6
20260506203016 69 319 1.0 5.0 0.00 0.00 0.00 66 1017.8
20260506201526 70 216 1.0 6.0 0.00 0.00 0.00 64 1018.0
20260506200012 67 248 1.0 7.0 0.00 0.00 0.00 67 1018.2
20260506194510 67 285 2.0 7.0 0.00 0.00 0.00 69 1018.4
20260506193010 68 329 4.0 9.0 0.00 0.00 0.00 68 1018.5
20260506191508 66 342 2.0 9.0 0.00 0.00 0.00 68 1018.7
20260506190007 66 277 2.0 5.0 0.00 0.00 0.00 69 1018.7
20260506184510 66 275 1.0 4.0 0.00 0.00 0.00 71 1018.7
20260506183001 65 350 2.0 6.0 0.00 0.00 0.00 71 1018.8
20260506181602 65 194 2.0 6.0 0.00 0.00 0.00 70 1018.8
20260506180057 63 341 1.0 4.0 0.00 0.00 0.00 72 1018.8
20260506174554 62 339 1.0 6.0 0.00 0.00 0.00 72 1018.9
20260506173056 63 212 2.0 8.0 0.00 0.00 0.00 73 1018.9
20260506171601 61 244 1.0 6.0 0.00 0.00 0.00 74 1019.0
20260506170056 61 110 2.0 5.0 0.00 0.00 0.00 73 1019.0
20260506164550 61 201 0.0 4.0 0.00 0.00 0.00 77 1018.9
20260506163046 59 331 0.0 3.0 0.00 0.00 0.00 78 1019.1
20260506161546 59 238 0.0 2.0 0.00 0.00 0.00 79 1019.0
20260506160057 59 240 0.0 2.0 0.00 0.00 0.00 79 1019.0
20260506154540 58 240 0.0 0.0 0.00 0.00 0.00 79 1019.0
20260506153036 57 5 0.0 1.0 0.00 0.00 0.00 79 1019.0
20260506151541 57 351 0.0 2.0 0.00 0.00 0.00 80 1019.0
20260506150034 57 323 0.0 2.0 0.00 0.00 0.00 80 1019.0
20260506144531 0 284 0.0 0.0 0.00 0.00 0.00 1018.9
20260506143026 0 309 0.0 0.0 0.00 0.00 0.00 1018.8
20260506141522 0 329 0.0 0.0 0.00 0.00 0.00 1018.7
20260506140025 0 329 0.0 0.0 0.00 0.00 0.00 1018.5
20260506134513 0 329 0.0 0.0 0.00 0.00 0.00 1018.3
20260506133013 0 311 0.0 0.0 0.00 0.00 0.00 1018.3
20260506131507 0 316 0.0 3.0 0.00 0.00 0.00 1018.2
20260506130101 0 284 0.0 2.0 0.00 0.00 0.00 1018.1
20260506124555 0 313 0.0 2.0 0.00 0.00 0.00 1018.0
20260506123053 55 303 0.0 4.0 0.00 0.00 0.00 82 1017.9
20260506121556 55 304 0.0 2.0 0.00 0.00 0.00 82 1017.9
20260506120053 55 314 1.0 3.0 0.00 0.00 0.00 82 1017.8
20260506114553 55 319 1.0 4.0 0.00 0.00 0.00 82 1017.8
20260506113047 55 313 1.0 3.0 0.00 0.00 0.00 82 1017.6
20260506111546 55 332 1.0 4.0 0.00 0.00 0.00 82 1017.5
20260506110044 55 309 1.0 3.0 0.00 0.00 0.00 82 1017.4
20260506104545 55 337 2.0 5.0 0.00 0.00 0.00 81 1017.3
20260506103041 55 335 1.0 4.0 0.00 0.00 0.00 82 1017.3
20260506101544 55 288 1.0 4.0 0.00 0.00 0.00 82 1017.2
20260506100051 55 342 1.0 4.0 0.00 0.00 0.00 83 1017.2
20260506094539 55 329 2.0 4.0 0.00 0.00 0.00 83 1017.3
20260506093038 54 321 0.0 2.0 0.00 0.00 0.00 83 1017.3
20260506091538 55 322 1.0 4.0 0.00 0.00 0.00 83 1017.2
20260506090037 55 326 0.0 3.0 0.00 0.00 0.00 82 1017.2
20260506084540 55 301 2.0 4.0 0.00 0.00 0.00 83 1017.3
20260506083034 55 329 0.0 2.0 0.00 0.00 0.00 82 1017.2
20260506081535 55 302 1.0 4.0 0.00 0.00 0.00 82 1017.3
20260506073029 55 323 2.0 5.0 0.00 0.00 0.00 83 1017.0
20260506071527 55 319 0.0 3.0 0.00 0.00 0.00 83 1016.9
20260506061522 55 293 1.0 4.0 0.00 0.00 0.00 82 1016.6
20260506044526 56 298 1.0 4.0 0.00 0.00 0.00 80 1016.1
20260506043012 56 227 1.0 5.0 0.00 0.00 0.00 80 1015.9
20260506041512 56 280 1.0 4.0 0.00 0.00 0.00 80 1015.7
20260506040009 56 323 1.0 4.0 0.00 0.00 0.00 81 1015.6
20260506034508 56 323 0.0 4.0 0.00 0.00 0.00 81 1015.4
20260506033005 56 284 0.0 4.0 0.00 0.00 0.00 80 1015.1
20260506031515 56 306 1.0 3.0 0.00 0.00 0.00 79 1014.9
20260506030003 57 343 1.0 4.0 0.00 0.00 0.00 78 1014.6
20260506024508 58 232 1.0 7.0 0.00 0.00 0.00 77 1014.7
20260506023002 59 291 2.0 7.0 0.00 0.00 0.00 77 1014.6
20260506021608 59 342 1.0 4.0 0.00 0.00 0.00 76 1014.5
20260506020059 59 292 3.0 9.0 0.00 0.00 0.00 75 1014.3
20260506014612 59 324 2.0 6.0 0.00 0.00 0.00 75 1014.2
20260506013100 60 236 1.0 10.0 0.00 0.00 0.00 74 1014.2
20260506011557 60 300 2.0 6.0 0.00 0.00 0.00 74 1014.2
20260506010106 60 294 1.0 6.0 0.00 0.00 0.00 75 1014.2
20260506004555 60 309 1.0 6.0 0.00 0.00 0.00 74 1014.2
20260506003055 60 290 2.0 5.0 0.00 0.00 0.00 75 1014.1
20260506001559 60 336 1.0 6.0 0.00 0.00 0.00 74 1013.9
20260506000058 60 289 0.0 4.0 0.00 0.00 0.00 73 1013.9
20260505234553 60 330 3.0 6.0 0.00 0.00 0.00 75 1014.0
20260505233104 60 296 1.0 5.0 0.00 0.00 0.00 75 1014.0
20260505231552 60 284 1.0 5.0 0.00 0.00 0.00 76 1014.0
20260505230053 60 321 2.0 7.0 0.00 0.00 0.00 76 1014.0
20260505224551 61 288 3.0 5.0 0.00 0.00 0.00 76 1013.9
20260505223052 61 309 1.0 5.0 0.00 0.00 0.00 75 1013.9